Вернуться в каталог

STARLINK-37929

АктивенСвязьSSO
NORAD 69557·PAYLOAD·🇺🇸 United States

Запущен Jun 15, 2026 с Vandenberg Space Force Base

Loading…

Ближайшие Пролёты (ближайшие 24 часа)

TLE

СвежийSource: CelesTrak SupGP

Эпоха: Sep 15, 2026, 03:25 UTC

1 69557C 26135M   26258.14284722 -.00041045  00000+0 -12742-2 0  2583
2 69557  97.2834 285.9072 0001286  89.2522 115.3951 15.33459541    11

Отслеживайте STARLINK-37929 в реальном времени с AllMySat

Download on the App Store